Cooperstown, ND

7:39 AM CST on January 18, 2017 (GMT -0600)
Cooperstown

Weather History for KS32 - September, 2012

Change the Weather History Date:

Saturday, September 15, 2012

  Actual Average (KJMS) Record (KJMS)
Temperature  
Mean Temperature 64 °F -  
Max Temperature 86 °F 70 °F 99 °F (1948)
Min Temperature 41 °F 44 °F 25 °F (1916)
Degree Days  
Heating Degree Days 2    
Growing Degree Days 14 (Base 50)    
Moisture  
Dew Point 37 °F    
Average Humidity 45    
Maximum Humidity 87    
Minimum Humidity 18    
Precipitation  
Precipitation 0.00 in - - ()
Sea Level Pressure  
Sea Level Pressure 29.96 in    
Wind  
Wind Speed 10 mph (South)    
Max Wind Speed 18 mph    
Max Gust Speed 23 mph    
Visibility 6 miles    
Events      
Averages and records for this station are not official NWS values.
T = Trace of Precipitation, MM = Missing Value Source: NWS Daily Summary

Daily Weather History Graph

Daily Weather History Graph

Search for Another Location

Airport or City:

Trip Planner

Search our weather history database for the weather conditions in past years. The results will help you decide how hot, cold, wet, or windy it might be!

Date:

Astronomy

Sep. 15, 2012 Rise Set
Actual Time 7:10 AM CDT 7:43 PM CDT
Civil Twilight 6:39 AM CDT 8:14 PM CDT
Nautical Twilight 6:03 AM CDT 8:50 PM CDT
Astronomical Twilight 5:24 AM CDT 9:28 PM CDT
Moon 6:45 AM CDT (9/15) 7:10 PM CDT (9/15)
Length of Visible Light 13h 34m
Length of Day
12h 32m
Waning Crescent, 0% of the Moon is Illuminated
Sep 15
Waning Crescent
Sep 15
New
Sep 22
First Quarter
Sep 29
Full
Oct 8
Last Quarter

Hourly Weather History & Observations

Time (CDT) Temp. Windchill Dew Point Humidity Pressure Visibility Wind Dir Wind Speed Gust Speed Precip Events Conditions
12:15 AM 50.0 °F - 32.0 °F 50% 30.15 in 10.0 mi SSE 10.4 mph - N/A   Clear
12:35 AM 51.8 °F - 32.0 °F 47% 30.15 in 10.0 mi SSE 10.4 mph - N/A   Clear
12:55 AM 53.6 °F - 32.0 °F 44% 30.14 in 10.0 mi SSE 10.4 mph - N/A   Clear
1:15 AM 50.0 °F - 32.0 °F 50% 30.14 in 10.0 mi SSE 9.2 mph - N/A   Clear
1:35 AM 50.0 °F - 32.0 °F 50% 30.14 in 10.0 mi SSE 9.2 mph - N/A   Clear
1:55 AM 50.0 °F - 33.8 °F 54% 30.13 in 10.0 mi SSE 9.2 mph - N/A   Clear
2:15 AM 48.2 °F - 33.8 °F 58% 30.12 in 10.0 mi SSE 9.2 mph - N/A   Clear
2:35 AM 46.4 °F 42.4 °F 33.8 °F 62% 30.12 in 2.5 mi SSE 8.1 mph - N/A   Haze
2:55 AM 46.4 °F 41.5 °F 33.8 °F 62% 30.12 in 4.0 mi SSE 10.4 mph - N/A   Haze
3:15 AM 48.2 °F - 35.6 °F 62% 30.11 in 5.0 mi SSE 9.2 mph - N/A   Haze
3:35 AM 48.2 °F - 35.6 °F 62% 30.11 in 5.0 mi SSE 9.2 mph - N/A   Haze
3:55 AM 48.2 °F - 35.6 °F 62% 30.10 in 3.0 mi SSE 10.4 mph - N/A   Haze
4:15 AM 50.0 °F - 35.6 °F 58% 30.10 in 1.8 mi SSE 9.2 mph - N/A   Haze
4:35 AM 46.4 °F 42.4 °F 35.6 °F 66% 30.09 in 1.8 mi South 8.1 mph - N/A   Haze
4:55 AM 46.4 °F 41.9 °F 35.6 °F 66% 30.09 in 1.0 mi SSE 9.2 mph - N/A   Haze
5:15 AM 48.2 °F - 35.6 °F 62% 30.07 in 6.0 mi SSE 9.2 mph - N/A   Haze
5:35 AM 48.2 °F - 37.4 °F 66% 30.07 in 2.5 mi SSE 10.4 mph - N/A   Haze
5:55 AM 46.4 °F 41.9 °F 37.4 °F 71% 30.07 in 1.8 mi SSE 9.2 mph - N/A   Haze
6:15 AM 46.4 °F 42.4 °F 37.4 °F 71% 30.06 in 1.2 mi SSE 8.1 mph - N/A   Haze
6:35 AM 44.6 °F 40.2 °F 37.4 °F 76% 30.06 in 1.5 mi SSE 8.1 mph - N/A   Haze
6:55 AM 42.8 °F 38.0 °F 37.4 °F 81% 30.06 in 1.2 mi SSE 8.1 mph - N/A   Haze
7:15 AM 41.0 °F 36.4 °F 37.4 °F 87% 30.05 in 0.5 mi SSE 6.9 mph - N/A   Haze
7:35 AM 42.8 °F 38.0 °F 37.4 °F 81% 30.04 in 1.5 mi SSE 8.1 mph - N/A   Haze
7:55 AM 46.4 °F 42.9 °F 37.4 °F 71% 30.04 in 1.2 mi SSE 6.9 mph - N/A   Haze
8:15 AM 48.2 °F - 39.2 °F 71% 30.03 in 1.2 mi SSE 5.8 mph - N/A   Haze
8:35 AM 50.0 °F - 39.2 °F 66% 30.03 in 1.2 mi SSE 8.1 mph - N/A   Haze
8:55 AM 53.6 °F - 39.2 °F 58% 30.01 in 1.2 mi SSE 9.2 mph - N/A   Haze
9:15 AM 55.4 °F - 39.2 °F 54% 30.01 in 1.0 mi SSE 10.4 mph - N/A   Haze
9:35 AM 57.2 °F - 39.2 °F 51% 30.00 in 1.0 mi SSE 10.4 mph - N/A   Haze
9:55 AM 59.0 °F - 39.2 °F 48% 29.99 in 1.2 mi SSE 10.4 mph - N/A   Haze
10:15 AM 64.4 °F - 37.4 °F 37% 29.98 in 1.5 mi SSE 12.7 mph - N/A   Haze
10:35 AM 64.4 °F - 37.4 °F 37% 29.97 in 1.0 mi SSE 11.5 mph - N/A   Haze
10:55 AM 66.2 °F - 37.4 °F 35% 29.95 in 1.2 mi South 12.7 mph 17.3 mph N/A   Haze
11:15 AM 68.0 °F - 35.6 °F 30% 29.95 in 1.2 mi South 11.5 mph - N/A   Haze
11:35 AM 68.0 °F - 35.6 °F 30% 29.95 in 1.0 mi SSE 11.5 mph - N/A   Haze
11:55 AM 71.6 °F - 37.4 °F 29% 29.94 in 1.8 mi South 10.4 mph 16.1 mph N/A   Haze
12:15 PM 73.4 °F - 37.4 °F 27% 29.94 in 1.5 mi SSE 12.7 mph 16.1 mph N/A   Haze
12:35 PM 75.2 °F - 35.6 °F 24% 29.93 in 2.5 mi South 11.5 mph 18.4 mph N/A   Haze
12:55 PM 77.0 °F - 35.6 °F 22% 29.92 in 1.8 mi SSE 15.0 mph 19.6 mph N/A   Haze
1:15 PM 78.8 °F - 35.6 °F 21% 29.91 in 1.5 mi South 10.4 mph 19.6 mph N/A   Haze
1:35 PM 80.6 °F - 35.6 °F 20% 29.90 in 1.2 mi SSE 17.3 mph 20.7 mph N/A   Haze
1:55 PM 80.6 °F - 35.6 °F 20% 29.89 in 1.5 mi SSE 15.0 mph 21.9 mph N/A   Haze
2:15 PM 80.6 °F - 35.6 °F 20% 29.89 in 10.0 mi South 15.0 mph 19.6 mph N/A   Clear
2:35 PM 80.6 °F - 37.4 °F 21% 29.86 in 10.0 mi South 16.1 mph 21.9 mph N/A   Clear
2:55 PM 80.6 °F - 37.4 °F 21% 29.85 in 10.0 mi South 16.1 mph 21.9 mph N/A   Clear
3:15 PM 82.4 °F - 37.4 °F 20% 29.86 in 10.0 mi SSE 15.0 mph 19.6 mph N/A   Clear
3:35 PM 84.2 °F - 37.4 °F 19% 29.85 in 10.0 mi South 15.0 mph 21.9 mph N/A   Clear
3:55 PM 84.2 °F - 39.2 °F 20% 29.84 in 10.0 mi South 18.4 mph 23.0 mph N/A   Clear
4:15 PM 84.2 °F - 39.2 °F 20% 29.84 in 10.0 mi SSW 15.0 mph 21.9 mph N/A   Clear
4:35 PM 86.0 °F - 37.4 °F 18% 29.83 in 10.0 mi SSW 15.0 mph 20.7 mph N/A   Clear
4:55 PM 84.2 °F - 37.4 °F 19% 29.83 in 10.0 mi SSW 11.5 mph 18.4 mph N/A   Clear
5:15 PM 84.2 °F - 39.2 °F 20% 29.83 in 10.0 mi SSW 9.2 mph - N/A   Clear
5:35 PM 84.2 °F - 39.2 °F 20% 29.82 in 10.0 mi SSW 9.2 mph - N/A   Clear
5:55 PM 84.2 °F - 39.2 °F 20% 29.82 in 10.0 mi SSW 8.1 mph - N/A   Clear
6:15 PM 84.2 °F - 37.4 °F 19% 29.82 in 10.0 mi West 9.2 mph - N/A   Clear
6:35 PM 80.6 °F - 37.4 °F 21% 29.82 in 10.0 mi NW 16.1 mph 20.7 mph N/A   Clear
6:55 PM 77.0 °F - 37.4 °F 24% 29.82 in 10.0 mi NW 9.2 mph - N/A   Clear
7:15 PM 73.4 °F - 37.4 °F 27% 29.82 in 10.0 mi NW 8.1 mph - N/A   Clear
7:35 PM 69.8 °F - 39.2 °F 33% 29.82 in 10.0 mi WNW 8.1 mph - N/A   Clear
7:55 PM 66.2 °F - 39.2 °F 37% 29.83 in 10.0 mi NW 10.4 mph - N/A   Clear
8:15 PM 68.0 °F - 41.0 °F 37% 29.84 in 10.0 mi NNW 10.4 mph - N/A   Clear
8:35 PM 66.2 °F - 41.0 °F 40% 29.84 in 10.0 mi NW 8.1 mph - N/A   Clear
8:55 PM 64.4 °F - 41.0 °F 42% 29.85 in 10.0 mi WNW 9.2 mph - N/A   Clear
9:15 PM 59.0 °F - 41.0 °F 51% 29.85 in 10.0 mi WNW 9.2 mph - N/A   Clear
9:35 PM 59.0 °F - 42.8 °F 55% 29.86 in 10.0 mi NW 8.1 mph - N/A   Clear
9:55 PM 57.2 °F - 41.0 °F 55% 29.86 in 10.0 mi NW 9.2 mph - N/A   Clear
10:15 PM 57.2 °F - 41.0 °F 55% 29.86 in 10.0 mi NW 8.1 mph - N/A   Clear
10:55 PM 57.2 °F - 41.0 °F 55% 29.86 in 10.0 mi NW 11.5 mph - N/A   Clear
11:15 PM 59.0 °F - 42.8 °F 55% 29.87 in 10.0 mi NNW 13.8 mph - N/A   Clear
11:35 PM 59.0 °F - 44.6 °F 59% 29.87 in 10.0 mi North 13.8 mph - N/A   Clear
11:55 PM 59.0 °F - 44.6 °F 59% 29.88 in 10.0 mi North 11.5 mph - N/A   Clear